Shawano, WI

2:07 PM CDT on July 21, 2017 (GMT -0500)
Shawano

Weather History for KEZS - September, 2013

Change the Weather History Date:

Sunday, September 29, 2013

  Actual Average (KCLI) Record (KCLI)
Temperature  
Mean Temperature 58 °F -  
Max Temperature 71 °F 66 °F 82 °F (1986)
Min Temperature 46 °F 41 °F 26 °F (1961)
Degree Days  
Heating Degree Days 6    
Growing Degree Days 8 (Base 50)    
Moisture  
Dew Point 47 °F    
Average Humidity 70    
Maximum Humidity 95    
Minimum Humidity 35    
Precipitation  
Precipitation 0.14 in - - ()
Sea Level Pressure  
Sea Level Pressure 29.99 in    
Wind  
Wind Speed 4 mph (SW)    
Max Wind Speed 9 mph    
Max Gust Speed -    
Visibility 10 miles    
Events      
Averages and records for this station are not official NWS values.
T = Trace of Precipitation, MM = Missing Value Source: NWS Daily Summary

Daily Weather History Graph

Daily Weather History Graph

Search for Another Location

Airport or City:

Trip Planner

Search our weather history database for the weather conditions in past years. The results will help you decide how hot, cold, wet, or windy it might be!

Date:

Astronomy

Sep. 29, 2013 Rise Set
Actual Time 6:50 AM CDT 6:38 PM CDT
Civil Twilight 6:20 AM CDT 7:07 PM CDT
Nautical Twilight 5:46 AM CDT 7:41 PM CDT
Astronomical Twilight 5:12 AM CDT 8:15 PM CDT
Moon 1:19 AM CDT (9/29) 3:44 PM CDT (9/29)
Length of Visible Light 12h 46m
Length of Day
11h 47m
Waning Crescent, 27% of the Moon is Illuminated
Sep 29
Waning Crescent
Oct 4
New
Oct 11
First Quarter
Oct 18
Full
Oct 26
Last Quarter

Hourly Weather History & Observations

Time (CDT) Temp. Dew Point Humidity Pressure Visibility Wind Dir Wind Speed Gust Speed Precip Events Conditions
12:15 AM 53.8 °F 51.8 °F 93% 29.92 in 10.0 mi Calm Calm - N/A   Scattered Clouds
12:35 AM 53.6 °F 51.3 °F 92% 29.92 in 10.0 mi WSW 3.5 mph - N/A   Clear
12:55 AM 53.4 °F 51.1 °F 92% 29.94 in 10.0 mi SW 3.5 mph - N/A   Scattered Clouds
1:15 AM 52.9 °F 50.9 °F 93% 29.94 in 10.0 mi SW 3.5 mph - N/A   Scattered Clouds
1:35 AM 52.9 °F 50.7 °F 92% 29.94 in 10.0 mi SW 3.5 mph - N/A   Clear
1:55 AM 52.5 °F 50.5 °F 93% 29.95 in 10.0 mi SW 3.5 mph - N/A   Clear
2:15 AM 52.2 °F 50.2 °F 93% 29.96 in 10.0 mi WSW 3.5 mph - N/A   Clear
2:35 AM 51.8 °F 49.8 °F 93% 29.96 in 10.0 mi WSW 3.5 mph - N/A   Clear
2:55 AM 51.4 °F 49.6 °F 94% 29.96 in 10.0 mi WSW 4.6 mph - N/A   Clear
3:15 AM 51.3 °F 49.5 °F 94% 29.96 in 10.0 mi WSW 3.5 mph - N/A   Clear
3:35 AM 50.5 °F 48.9 °F 94% 29.96 in 10.0 mi West 3.5 mph - N/A   Clear
3:55 AM 50.5 °F 49.1 °F 95% 29.96 in 10.0 mi West 4.6 mph - N/A   Clear
4:15 AM 50.2 °F 48.6 °F 94% 29.97 in 10.0 mi West 4.6 mph - N/A   Clear
4:35 AM 50.0 °F 48.2 °F 94% 29.98 in 10.0 mi WSW 4.6 mph - N/A   Clear
4:55 AM 49.8 °F 48.2 °F 94% 29.98 in 10.0 mi WSW 4.6 mph - N/A   Clear
5:15 AM 49.3 °F 47.7 °F 94% 29.99 in 10.0 mi WSW 5.8 mph - N/A   Clear
5:35 AM 49.1 °F 47.3 °F 93% 29.99 in 10.0 mi WSW 4.6 mph - N/A   Clear
5:55 AM 48.9 °F 47.5 °F 95% 30.00 in 7.0 mi Calm Calm - N/A   Clear
6:15 AM 47.8 °F 46.2 °F 94% 30.01 in 1.8 mi Calm Calm - N/A   Mist
6:35 AM 46.8 °F 45.3 °F 95% 30.02 in 5.0 mi Calm Calm - N/A   Clear
6:55 AM 46.0 °F 44.8 °F 95% 30.02 in 1.8 mi Calm Calm - N/A   Mist
7:15 AM 46.6 °F 45.3 °F 95% 30.03 in 3.0 mi Calm Calm - N/A   Clear
7:35 AM 46.9 °F 45.7 °F 95% 30.03 in 5.0 mi Calm Calm - N/A   Clear
7:55 AM 48.0 °F 46.8 °F 95% 30.03 in 10.0 mi Calm Calm - N/A   Clear
8:15 AM 49.5 °F 48.2 °F 95% 30.03 in 10.0 mi SW 3.5 mph - N/A   Clear
8:35 AM 51.4 °F 50.2 °F 95% 30.03 in 10.0 mi WSW 4.6 mph - N/A   Clear
8:55 AM 52.7 °F 50.0 °F 91% 30.04 in 10.0 mi WSW 4.6 mph - N/A   Clear
9:15 AM 54.5 °F 50.4 °F 86% 30.04 in 10.0 mi WSW 5.8 mph - N/A   Clear
9:35 AM 56.3 °F 49.6 °F 78% 30.05 in 10.0 mi WSW 5.8 mph - N/A   Clear
9:55 AM 58.5 °F 49.3 °F 72% 30.04 in 10.0 mi WSW 3.5 mph - N/A   Clear
10:15 AM 60.1 °F 48.4 °F 65% 30.04 in 10.0 mi WSW 6.9 mph - N/A   Clear
10:35 AM 61.5 °F 49.1 °F 64% 30.05 in 10.0 mi West 6.9 mph - N/A   Clear
10:55 AM 62.2 °F 48.4 °F 60% 30.05 in 10.0 mi SW 8.1 mph - N/A   Clear
11:15 AM 63.7 °F 48.6 °F 58% 30.04 in 10.0 mi WSW 4.6 mph - N/A   Clear
11:35 AM 64.6 °F 48.4 °F 56% 30.04 in 10.0 mi SW 4.6 mph - N/A   Clear
11:55 AM 65.5 °F 48.2 °F 54% 30.04 in 10.0 mi WSW 5.8 mph - N/A   Clear
12:15 PM 66.2 °F 47.8 °F 52% 30.04 in 10.0 mi WSW 8.1 mph - N/A   Clear
12:35 PM 67.3 °F 47.7 °F 49% 30.03 in 10.0 mi West 9.2 mph - N/A   Clear
12:55 PM 68.0 °F 47.5 °F 48% 30.03 in 10.0 mi SSW 5.8 mph - N/A   Clear
1:15 PM 68.4 °F 46.6 °F 46% 30.02 in 10.0 mi WSW 3.5 mph - N/A   Clear
1:35 PM 69.8 °F 45.9 °F 42% 30.00 in 10.0 mi SSW 5.8 mph - N/A   Clear
1:55 PM 69.4 °F 44.6 °F 41% 30.00 in 10.0 mi WSW 5.8 mph - N/A   Clear
2:15 PM 69.4 °F 44.2 °F 40% 29.99 in 10.0 mi WSW 3.5 mph - N/A   Clear
2:35 PM 70.2 °F 43.9 °F 39% 29.99 in 10.0 mi WSW 6.9 mph - N/A   Clear
2:55 PM 70.9 °F 44.1 °F 38% 29.98 in 10.0 mi South 8.1 mph - N/A   Scattered Clouds
3:15 PM 70.5 °F 42.4 °F 36% 29.98 in 10.0 mi WSW 5.8 mph - N/A   Scattered Clouds
3:35 PM 70.7 °F 42.8 °F 36% 29.98 in 10.0 mi SW 6.9 mph - N/A   Scattered Clouds
3:55 PM 71.2 °F 41.9 °F 35% 29.97 in 10.0 mi SW 6.9 mph - N/A   Scattered Clouds
4:15 PM 70.9 °F 41.9 °F 35% 29.97 in 10.0 mi SSW 5.8 mph - N/A   Clear
4:35 PM 70.5 °F 43.3 °F 37% 29.96 in 10.0 mi South 3.5 mph - N/A   Clear
4:55 PM 70.2 °F 43.9 °F 39% 29.96 in 10.0 mi SSW 5.8 mph - N/A   Clear
5:15 PM 69.8 °F 45.0 °F 41% 29.97 in 10.0 mi SSW 4.6 mph - N/A   Clear
5:35 PM 68.9 °F 45.5 °F 43% 29.97 in 10.0 mi South 3.5 mph - N/A   Clear
5:55 PM 67.8 °F 46.0 °F 46% 29.96 in 10.0 mi South 4.6 mph - N/A   Clear
6:15 PM 64.9 °F 46.6 °F 51% 29.96 in 10.0 mi South 4.6 mph - N/A   Clear
6:35 PM 63.3 °F 46.8 °F 55% 29.96 in 10.0 mi South 3.5 mph - N/A   Clear
6:55 PM 61.7 °F 46.8 °F 58% 29.96 in 10.0 mi South 3.5 mph - N/A   Clear
7:15 PM 60.8 °F 46.6 °F 59% 29.96 in 10.0 mi South 3.5 mph - N/A   Clear
7:35 PM 60.6 °F 46.4 °F 59% 29.96 in 10.0 mi South 3.5 mph - N/A   Clear
7:55 PM 59.4 °F 46.4 °F 62% 29.97 in 10.0 mi South 3.5 mph - N/A   Clear
8:15 PM 59.2 °F 46.4 °F 63% 29.97 in 10.0 mi South 5.8 mph - N/A   Clear
8:35 PM 58.6 °F 46.2 °F 63% 29.97 in 10.0 mi South 4.6 mph - N/A   Clear
8:55 PM 58.1 °F 46.4 °F 65% 29.98 in 10.0 mi South 4.6 mph - N/A   Clear
9:15 PM 57.6 °F 46.0 °F 65% 29.98 in 10.0 mi Calm Calm - N/A   Clear
9:35 PM 55.8 °F 46.0 °F 70% 29.98 in 10.0 mi South 4.6 mph - N/A   Clear
9:55 PM 56.3 °F 46.4 °F 69% 29.98 in 10.0 mi South 4.6 mph - N/A   Clear
10:15 PM 55.6 °F 46.4 °F 71% 29.98 in 10.0 mi South 3.5 mph - N/A   Clear
10:35 PM 55.2 °F 46.4 °F 72% 29.98 in 10.0 mi South 3.5 mph - N/A   Clear
10:55 PM 54.7 °F 46.9 °F 75% 29.98 in 10.0 mi Calm Calm - N/A   Clear
11:15 PM 54.5 °F 47.7 °F 78% 29.98 in 10.0 mi Calm Calm - N/A   Clear
11:35 PM 53.6 °F 47.8 °F 81% 29.98 in 10.0 mi Calm Calm - N/A   Clear
11:55 PM 53.6 °F 48.0 °F 81% 29.98 in 10.0 mi South 3.5 mph - N/A   Clear